AMC-10 (GE-10)

导读

AMC-10(原称GE-10)是由SES运营的通信卫星,于2004年2月5日成功发射。该卫星定点于地球同步轨道,主要覆盖北美地区,提供广播、宽带通信和数据传输等服务,为有线电视网络分发、企业网络连接等业务提供支持,凭借稳定的性能长期服务于美洲地区的通信市场,是SES卫星 fleet中重要的容量补充节点,持续满足区域内多媒体和通信服务需求。

Basic Information
目录编号:
28154
目录名称:
AMC-10 (GE-10)
国际标识:
2004-003A
轨道中心:
EARTH
卫星名称:
AMC-10 (GE-10)
卫星全名:
--
卫星状态:
在轨 (已飞行8195 天)
发射日期:
2004-02-05 UTC
国别 :
(SES)
星等 :
--
Orbit Information
数据来源 国际轨道数据 AOE轨道数据
星历时间 2026-07-14T03:26:37+0800
10小时前
查看轨道信息
2026-07-12T16:00:00+0800
1天前
查看轨道信息
半长轴 42489.771km 42489.885km
偏心率 0.0003399 0.0003409
轨道倾角 6.754° 6.750°
近地点辐角 87.588° 86.736°
升交点赤经 68.721° 68.737°
平近点角 245.245° 79.077°
近地点 36097.191km 36097.263km
远地点 36126.077km 36126.233km
周期 1452.735分钟 1452.741分钟
每日圈数 0.991234 0.99123
Detailed Information
使用方式:
暂无
2D Orbit Map
3D Orbit Map
Orbit Altitude Analysis Chart
Orbit Inclination Analysis Chart
Orbit Comprehensive Analysis Chart
View Comprehensive Chart